FW3304 Weather Reports


Display with metric or nautical units.
time (UTC)temp
F
wind
direction
speed
MPH
gust
MPH
rain 1hr
in
rain 24hr
in
rain mn
in
humidity
%
barometer
mb
20260905200055 96 210 3.0 10.0 0.00 0.00 0.00 58 1013.5
20260905200012 96 178 3.0 7.0 0.00 0.00 0.00 58 1010.6
20260905194505 95 216 2.0 8.0 0.00 0.00 0.00 60 1011.0
20260905193015 95 213 4.0 10.0 0.00 0.00 0.00 61 1014.1
20260905193003 95 243 2.0 8.0 0.00 0.00 0.00 61 1011.1
20260905191501 95 205 5.0 9.0 0.00 0.00 0.00 62 1011.5
20260905190059 96 202 3.0 5.0 0.00 0.00 0.00 61 1011.7
20260905190015 96 53 2.0 10.0 0.00 0.00 0.00 58 1014.7
20260905184602 95 32 4.0 9.0 0.00 0.00 0.00 58 1011.7
20260905183058 95 125 2.0 5.0 0.00 0.00 0.00 59 1011.9
20260905183020 95 93 2.0 9.0 0.00 0.00 0.00 58 1014.7
20260905181554 95 83 4.0 8.0 0.00 0.00 0.00 61 1012.0
20260905180051 95 67 4.0 6.0 0.00 0.00 0.00 62 1012.2
20260905180015 95 40 3.0 9.0 0.00 0.00 0.00 61 1015.1
20260905174550 95 37 4.0 8.0 0.00 0.00 0.00 61 1012.2
20260905173048 96 346 0.0 6.0 0.00 0.00 0.00 57 1012.3
20260905173015 96 311 2.0 6.0 0.00 0.00 0.00 58 1015.3
20260905171547 95 1 2.0 5.0 0.00 0.00 0.00 60 1012.4
20260905170042 95 279 2.0 5.0 0.00 0.00 0.00 59 1012.6
20260905170015 95 328 1.0 7.0 0.00 0.00 0.00 59 1015.5
20260905164540 95 314 1.0 3.0 0.00 0.00 0.00 58 1012.8
20260905163037 94 303 3.0 6.0 0.00 0.00 0.00 61 1012.9
20260905163015 95 350 1.0 7.0 0.00 0.00 0.00 60 1015.7
20260905161533 94 1 0.0 5.0 0.00 0.00 0.00 63 1012.9
20260905160030 93 352 2.0 5.0 0.00 0.00 0.00 65 1013.1
20260905160015 93 15 2.0 5.0 0.00 0.00 0.00 65 1015.9
20260905154525 92 15 3.0 5.0 0.00 0.00 0.00 67 1013.2
20260905153035 91 127 0.0 3.0 0.00 0.00 0.00 72 1016.1
20260905153024 91 125 0.0 2.0 0.00 0.00 0.00 72 1013.2
20260905151519 90 184 0.0 0.0 0.00 0.00 0.00 73 1013.3
20260905150019 90 0.0 0.0 0.00 0.00 0.00 77 1016.4
20260905150015 90 184 0.0 0.0 0.00 0.00 0.00 77 1013.4
20260905144516 88 184 0.0 0.0 0.00 0.00 0.00 81 1013.3
20260905143015 87 0.0 0.0 0.00 0.00 0.00 83 1016.2
20260905143009 87 184 0.0 0.0 0.00 0.00 0.00 83 1013.4
20260905141505 85 184 0.0 0.0 0.00 0.00 0.00 85 1013.4
20260905140100 84 184 0.0 0.0 0.00 0.00 0.00 87 1013.4
20260905140015 84 0.0 0.0 0.00 0.00 0.00 87 1016.4
20260905134554 82 146 0.0 0.0 0.00 0.00 0.00 89 1013.4
20260905133051 81 146 0.0 0.0 0.00 0.00 0.00 93 1013.4
20260905133015 81 0.0 1.0 0.00 0.00 0.00 93 1016.1
20260905131547 79 146 0.0 0.0 0.00 0.00 0.00 96 1013.4
20260905130043 77 146 0.0 0.0 0.00 0.00 0.00 98 1013.2
20260905130017 77 147 0.0 1.0 0.00 0.00 0.00 98 1016.0
20260905124540 76 146 0.0 1.0 0.00 0.00 0.00 100 1013.2
20260905123038 74 141 0.0 0.0 0.00 0.00 0.00 99 1013.1
20260905123017 74 0.0 0.0 0.00 0.00 0.00 99 1015.8
20260905121536 74 141 0.0 0.0 0.00 0.00 0.00 99 1013.0
20260905120037 73 0.0 0.0 0.00 0.00 0.00 99 1015.5
20260905120033 73 141 0.0 0.0 0.00 0.00 0.00 99 1012.9
20260905114531 73 141 0.0 0.0 0.00 0.00 0.00 98 1012.7
20260905113028 74 141 0.0 0.0 0.00 0.00 0.00 99 1012.6
20260905113021 74 0.0 0.0 0.00 0.00 0.00 99 1015.2
20260905111531 73 141 0.0 0.0 0.00 0.00 0.00 99 1012.6
20260905110026 73 141 0.0 0.0 0.00 0.00 0.00 98 1012.5
20260905110016 73 0.0 0.0 0.00 0.00 0.00 98 1015.1
20260905104525 73 141 0.0 0.0 0.00 0.00 0.00 98 1012.4
20260905103032 74 141 0.0 0.0 0.00 0.00 0.00 98 1012.5
20260905103016 74 0.0 0.0 0.00 0.00 0.00 98 1015.2
20260905101522 74 141 0.0 0.0 0.00 0.00 0.00 98 1012.4
20260905100021 73 141 0.0 0.0 0.00 0.00 0.00 98 1012.2
20260905100016 73 0.0 0.0 0.00 0.00 0.00 98 1015.0
20260905094519 74 141 0.0 0.0 0.00 0.00 0.00 98 1012.2
20260905093018 74 141 0.0 0.0 0.00 0.00 0.00 98 1012.1
20260905091517 74 141 0.0 0.0 0.00 0.00 0.00 98 1012.1
20260905090016 74 0.0 0.0 0.00 0.00 0.00 98 1014.9
20260905090014 74 141 0.0 0.0 0.00 0.00 0.00 98 1012.1
20260905084513 74 141 0.0 0.0 0.00 0.00 0.00 98 1012.1
20260905083017 74 0.0 0.0 0.00 0.00 0.00 97 1014.9
20260905083013 74 141 0.0 0.0 0.00 0.00 0.00 97 1012.1
20260905081512 74 141 0.0 0.0 0.00 0.00 0.00 98 1012.2
20260905080021 75 0.0 0.0 0.00 0.00 0.00 97 1014.9
20260905080017 75 141 0.0 0.0 0.00 0.00 0.00 97 1012.2
20260905074508 75 141 0.0 0.0 0.00 0.00 0.00 97 1012.2
20260905073016 75 0.0 0.0 0.00 0.00 0.00 97 1014.9
20260905073007 75 141 0.0 0.0 0.00 0.00 0.00 97 1012.2
20260905071506 75 141 0.0 0.0 0.00 0.00 0.00 97 1012.2
20260905070016 75 0.0 0.0 0.00 0.00 0.00 97 1014.9
20260905070005 75 141 0.0 0.0 0.00 0.00 0.00 97 1012.1
20260905064504 76 141 0.0 0.0 0.00 0.00 0.00 96 1012.3
20260905063036 76 0.0 3.0 0.00 0.00 0.00 96 1015.2
20260905063002 76 141 0.0 0.0 0.00 0.00 0.00 96 1012.3
20260905061613 77 141 0.0 0.0 0.00 0.00 0.00 96 1012.3
20260905060100 77 141 0.0 0.0 0.00 0.00 0.00 96 1012.4
20260905060016 77 143 0.0 3.0 0.00 0.00 0.00 96 1015.4
20260905054556 77 141 0.0 0.0 0.00 0.00 0.00 96 1012.4
20260905053055 77 141 0.0 1.0 0.00 0.00 0.00 95 1012.4
20260905053016 77 142 0.0 2.0 0.00 0.00 0.00 95 1015.2
20260905051600 77 141 0.0 1.0 0.00 0.00 0.00 95 1012.5
20260905050051 77 141 0.0 1.0 0.00 0.00 0.00 96 1012.5
20260905050017 77 0.0 7.0 0.00 0.00 0.00 96 1015.4
20260905044549 77 141 0.0 0.0 0.00 0.00 0.00 95 1012.5
20260905043057 77 141 0.0 1.0 0.00 0.00 0.00 96 1012.7
20260905043021 77 133 0.0 7.0 0.00 0.00 0.00 96 1015.7
20260905041549 77 141 2.0 6.0 0.00 0.00 0.00 95 1012.7
20260905040056 77 71 0.0 0.0 0.00 0.00 0.00 95 1012.7
20260905040016 78 76 0.0 2.0 0.00 0.00 0.00 95 1015.5
20260905034548 78 71 0.0 1.0 0.00 0.00 0.00 95 1012.9
20260905033051 78 71 0.0 0.0 0.00 0.00 0.00 94 1012.9
20260905031551 78 71 0.0 0.0 0.00 0.00 0.00 94 1013.0
20260905030055 79 71 0.0 0.0 0.00 0.00 0.00 94 1013.0
20260905030016 79 0.0 2.0 0.00 0.00 0.00 94 1015.8
20260905024546 79 71 0.0 0.0 0.00 0.00 0.00 94 1012.9
20260905023046 80 71 0.0 2.0 0.00 0.00 0.00 93 1012.7
20260905023016 80 76 0.0 2.0 0.00 0.00 0.00 93 1015.7
20260905021545 80 71 0.0 1.0 0.00 0.00 0.00 92 1012.8
20260905020049 81 71 0.0 1.0 0.00 0.00 0.00 92 1012.7
20260905020016 81 76 0.0 1.0 0.00 0.00 0.00 92 1015.5
20260905014543 81 71 0.0 0.0 0.00 0.00 0.00 91 1012.7
20260905013049 82 71 0.0 0.0 0.00 0.00 0.00 90 1012.6
20260905013015 82 0.0 0.0 0.00 0.00 0.00 90 1015.3
20260905011622 82 71 0.0 0.0 0.00 0.00 0.00 89 1012.4
20260905010041 83 71 0.0 0.0 0.00 0.00 0.00 88 1012.3
20260905004542 84 71 0.0 0.0 0.00 0.00 0.00 87 1012.1
20260905003041 85 71 0.0 0.0 0.00 0.00 0.00 85 1011.9
20260905003016 86 0.0 1.0 0.00 0.00 0.00 85 1014.4
20260905001551 88 71 0.0 0.0 0.00 0.00 0.00 82 1011.9
20260905000043 90 71 0.0 0.0 0.00 0.00 0.00 78 1011.8
20260905000015 90 76 0.0 3.0 0.00 0.00 0.00 78 1014.6
20260904234539 92 71 0.0 0.0 0.00 0.00 0.00 75 1011.9
20260904233038 94 71 0.0 1.0 0.00 0.00 0.00 71 1011.9
20260904233015 94 75 0.0 5.0 0.00 0.00 0.00 71 1014.9
20260904231532 93 71 0.0 3.0 0.00 0.00 0.00 68 1011.9
20260904230035 93 76 2.0 5.0 0.00 0.00 0.00 66 1014.7
20260904230031 93 71 2.0 4.0 0.00 0.00 0.00 66 1011.8
20260904224530 94 71 2.0 4.0 0.00 0.00 0.00 66 1011.9
20260904223029 94 72 2.0 5.0 0.00 0.00 0.00 62 1011.9
20260904223015 94 76 2.0 7.0 0.00 0.00 0.00 62 1014.8
20260904221529 94 71 2.0 5.0 0.00 0.00 0.00 62 1011.9
20260904220029 95 72 3.0 6.0 0.00 0.00 0.00 59 1011.9
20260904220015 95 61 2.0 7.0 0.00 0.00 0.00 59 1014.8
20260904214528 96 63 2.0 4.0 0.00 0.00 0.00 58 1011.9
20260904213027 97 321 1.0 3.0 0.00 0.00 0.00 55 1011.9
20260904213020 97 323 1.0 6.0 0.00 0.00 0.00 55 1014.7
20260904211523 97 321 1.0 4.0 0.00 0.00 0.00 54 1012.2
20260904210035 96 334 2.0 10.0 0.00 0.00 0.00 59 1015.3
20260904210026 96 340 1.0 4.0 0.00 0.00 0.00 59 1012.4
20260904204517 94 340 2.0 6.0 0.00 0.00 0.00 60 1012.7
20260904203021 92 333 3.0 6.0 0.00 0.00 0.00 63 1012.9
20260904203015 92 299 4.0 13.0 0.00 0.00 0.00 63 1015.7
20260904201513 90 309 3.0 8.0 0.00 0.00 0.00 65 1013.0